Weather History for KCKV - November, 2012

Change the Weather History Date:

Thursday, November 29, 2012

  Actual Average Record
Temperature  
Mean Temperature 41 °F -  
Max Temperature 59 °F - 73 °F (1991)
Min Temperature 23 °F - 15 °F (1955)
Degree Days  
Heating Degree Days 24    
Month to date heating degree days 540  
Since 1 July heating degree days 838  
Cooling Degree Days 0    
Month to date cooling degree days 0  
Moisture  
Dew Point 27 °F    
Average Humidity 66    
Maximum Humidity 96    
Minimum Humidity 30    
Precipitation  
Precipitation 0.00 in - 3.53 in (2001)
Month to date precipitation 1.71  
Sea Level Pressure  
Sea Level Pressure 30.34 in    
Wind  
Wind Speed 4 mph (SSE)    
Max Wind Speed 13 mph    
Max Gust Speed 16 mph    
Visibility 8 miles    
Events      
T = Trace of Precipitation, MM = Missing Value Source: NWS Daily Summary

Daily Weather History Graph

Daily Weather History Graph

Search for Another Location

Airport or City:

Trip Planner

Search our weather history database for the weather conditions in past years. The results will help you decide how hot, cold, wet, or windy it might be!

Date:

Astronomy

Nov. 29, 2012 Rise Set
Actual Time 6:41 AM CST 4:34 PM CST
Civil Twilight 6:13 AM CST 5:02 PM CST
Nautical Twilight 5:41 AM CST 5:34 PM CST
Astronomical Twilight 5:10 AM CST 6:05 PM CST
Moon 5:37 PM CST (11/29) 7:28 AM CST (11/29)
Length of Visible Light 10h 49m
Length of Day
9h 52m
Full, 99% of the Moon is Illuminated
Nov 29
Full
Dec 6
Last Quarter
Dec 13
New
Dec 19
First Quarter
Dec 28
Full

Hourly Weather History & Observations

Time (CST) Temp. Windchill Dew Point Humidity Pressure Visibility Wind Dir Wind Speed Gust Speed Precip Events Conditions
12:52 AM 27.0 °F 23.0 °F 25.0 °F 92% 30.40 in 5.0 mi ESE 3.5 mph - N/A   Clear
1:52 AM 27.0 °F 21.6 °F 25.0 °F 92% 30.39 in 6.0 mi SE 4.6 mph - N/A   Clear
2:52 AM 27.0 °F - 25.0 °F 92% 30.39 in 5.0 mi Calm Calm - N/A   Clear
3:52 AM 26.1 °F 21.9 °F 24.1 °F 92% 30.38 in 5.0 mi ESE 3.5 mph - N/A   Clear
4:52 AM 25.0 °F 20.7 °F 23.0 °F 92% 30.38 in 4.0 mi East 3.5 mph - N/A   Clear
5:52 AM 27.0 °F - 25.0 °F 92% 30.39 in 4.0 mi Calm Calm - N/A   Clear
6:52 AM 23.0 °F - 21.9 °F 96% 30.41 in 2.5 mi Calm Calm - N/A   Clear
7:08 AM 26.6 °F 22.6 °F 24.8 °F 93% 30.40 in 3.0 mi East 3.5 mph - N/A   Clear
7:52 AM 30.0 °F 26.5 °F 28.0 °F 92% 30.42 in 4.0 mi SE 3.5 mph - N/A   Clear
8:52 AM 36.0 °F 33.3 °F 30.9 °F 82% 30.41 in 8.0 mi SE 3.5 mph - N/A   Clear
9:52 AM 44.1 °F 42.5 °F 30.9 °F 60% 30.40 in 10.0 mi South 3.5 mph - N/A   Clear
10:52 AM 50.0 °F - 30.9 °F 48% 30.38 in 10.0 mi South 5.8 mph - N/A   Clear
11:52 AM 53.1 °F - 32.0 °F 45% 30.34 in 10.0 mi SSE 6.9 mph - N/A   Clear
12:52 PM 55.0 °F - 28.9 °F 37% 30.31 in 10.0 mi SSW 5.8 mph - N/A   Unknown
1:52 PM 57.9 °F - 27.0 °F 31% 30.27 in 10.0 mi SW 9.2 mph - N/A   Clear
2:52 PM 57.9 °F - 27.0 °F 31% 30.27 in 10.0 mi SW 6.9 mph - N/A   Clear
3:52 PM 55.9 °F - 28.0 °F 34% 30.27 in 10.0 mi SSW 4.6 mph - N/A   Clear
4:52 PM 53.1 °F - 28.0 °F 38% 30.27 in 10.0 mi South 4.6 mph - N/A   Clear
5:52 PM 51.1 °F - 28.0 °F 41% 30.28 in 10.0 mi Calm Calm - N/A   Clear
6:52 PM 45.0 °F - 28.9 °F 53% 30.28 in 10.0 mi Calm Calm - N/A   Clear
7:52 PM 42.1 °F 39.2 °F 28.9 °F 60% 30.28 in 10.0 mi South 4.6 mph - N/A   Clear
8:52 PM 41.0 °F 38.0 °F 28.9 °F 62% 30.28 in 10.0 mi South 4.6 mph - N/A   Clear
9:52 PM 39.9 °F 36.7 °F 28.9 °F 65% 30.28 in 10.0 mi SE 4.6 mph - N/A   Clear
10:52 PM 39.9 °F 37.8 °F 28.9 °F 65% 30.27 in 10.0 mi SE 3.5 mph - N/A   Clear
11:52 PM 39.0 °F 36.8 °F 28.9 °F 67% 30.28 in 10.0 mi SE 3.5 mph - N/A   Clear